| time (UTC) | temp C | wind direction | speed KPH | gust KPH | rain 1hr cm | rain 24hr cm | rain mn cm | humidity % | barometer mb |
| 20260506140223 | 10 | 346 | 3.2 | 8.0 | 0.00 | 0.00 | 0.00 | 57 | 1019.1 |
| 20260506135723 | 9 | 275 | 3.2 | 6.4 | 0.00 | 0.00 | 0.00 | 61 | 1019.0 |
| 20260506135223 | 8 | 346 | 1.6 | 6.4 | 0.00 | 0.00 | 0.00 | 64 | 1019.0 |
| 20260506134723 | 7 | 20 | 1.6 | 6.4 | 0.00 | 0.00 | 0.00 | 66 | 1018.9 |
| 20260506134223 | 6 | 287 | 3.2 | 6.4 | 0.00 | 0.00 | 0.00 | 68 | 1018.9 |
| 20260506133721 | 6 | 250 | 3.2 | 6.4 | 0.00 | 0.00 | 0.00 | 72 | 1018.9 |
| 20260506133223 | 5 | 338 | 1.6 | 6.4 | 0.00 | 0.00 | 0.00 | 75 | 1018.9 |
| 20260506132722 | 4 | 221 | 3.2 | 6.4 | 0.00 | 0.00 | 0.00 | 78 | 1018.9 |
| 20260506132220 | 3 | 282 | 3.2 | 6.4 | 0.00 | 0.00 | 0.00 | 79 | 1018.8 |
| 20260506131720 | 3 | 300 | 1.6 | 8.0 | 0.00 | 0.00 | 0.00 | 79 | 1018.7 |
| 20260506131220 | 2 | 22 | 3.2 | 8.0 | 0.00 | 0.00 | 0.00 | 79 | 1018.7 |
| 20260506130720 | 2 | 319 | 3.2 | 6.4 | 0.00 | 0.00 | 0.00 | 80 | 1018.6 |
| 20260506125719 | 1 | 309 | 3.2 | 6.4 | 0.00 | 0.00 | 0.00 | 81 | 1018.7 |
| 20260506125218 | 1 | 309 | 3.2 | 6.4 | 0.00 | 0.00 | 0.00 | 81 | 1018.7 |
| 20260506124717 | 1 | 9 | 3.2 | 6.4 | 0.00 | 0.00 | 0.00 | 82 | 1018.7 |
| 20260506123719 | 1 | 339 | 3.2 | 6.4 | 0.00 | 0.00 | 0.00 | 82 | 1018.4 |
| 20260506123215 | 1 | 309 | 3.2 | 6.4 | 0.00 | 0.00 | 0.00 | 82 | 1018.5 |
| 20260506122714 | 1 | 319 | 1.6 | 3.2 | 0.00 | 0.00 | 0.00 | 82 | 1018.4 |
| 20260506122214 | 0 | 221 | 1.6 | 3.2 | 0.00 | 0.00 | 0.00 | 82 | 1018.2 |
| 20260506121715 | 0 | 17 | 1.6 | 3.2 | 0.00 | 0.00 | 0.00 | 81 | 1018.2 |
| 20260506121214 | 0 | 51 | 0.0 | 1.6 | 0.00 | 0.00 | 0.00 | 81 | 1018.0 |
| 20260506120714 | 0 | 178 | 0.0 | 1.6 | 0.00 | 0.00 | 0.00 | 81 | 1018.1 |
| 20260506120158 | 0 | 93 | 0.0 | 3.2 | 0.00 | 0.00 | 0.00 | 81 | 1017.9 |
| 20260506115658 | 0 | 9 | 0.0 | 3.2 | 0.00 | 0.00 | 0.00 | 80 | 1017.9 |
| 20260506115158 | 0 | 26 | 0.0 | 1.6 | 0.00 | 0.00 | 0.00 | 80 | 1017.7 |
| 20260506114657 | 0 | 9 | 0.0 | 1.6 | 0.00 | 0.00 | 0.00 | 80 | 1017.8 |
| 20260506114158 | 0 | 291 | 0.0 | 3.2 | 0.00 | 0.00 | 0.00 | 80 | 1017.7 |
| 20260506113656 | 0 | 221 | 1.6 | 3.2 | 0.00 | 0.00 | 0.00 | 79 | 1017.6 |
| 20260506113157 | 0 | 205 | 0.0 | 1.6 | 0.00 | 0.00 | 0.00 | 79 | 1017.5 |
| 20260506112656 | 0 | 51 | 0.0 | 1.6 | 0.00 | 0.00 | 0.00 | 78 | 1017.5 |
| 20260506112150 | 1 | 9 | 0.0 | 1.6 | 0.00 | 0.00 | 0.00 | 77 | 1017.5 |
| 20260506111150 | 1 | 51 | 0.0 | 1.6 | 0.00 | 0.00 | 0.00 | 77 | 1017.5 |
| 20260506110651 | 1 | 51 | 0.0 | 1.6 | 0.00 | 0.00 | 0.00 | 77 | 1017.5 |
| 20260506110145 | 1 | 119 | 0.0 | 1.6 | 0.00 | 0.00 | 0.00 | 76 | 1017.4 |
| 20260506105645 | 1 | 119 | 0.0 | 1.6 | 0.00 | 0.00 | 0.00 | 76 | 1017.4 |
| 20260506105145 | 1 | 178 | 0.0 | 1.6 | 0.00 | 0.00 | 0.00 | 75 | 1017.4 |
| 20260506104644 | 1 | 265 | 0.0 | 1.6 | 0.00 | 0.00 | 0.00 | 75 | 1017.4 |
| 20260506104144 | 2 | 162 | 0.0 | 1.6 | 0.00 | 0.00 | 0.00 | 74 | 1017.4 |
| 20260506103639 | 2 | 221 | 0.0 | 1.6 | 0.00 | 0.00 | 0.00 | 74 | 1017.3 |
| 20260506103140 | 2 | 111 | 0.0 | 0.0 | 0.00 | 0.00 | 0.00 | 73 | 1017.3 |
| 20260506102638 | 2 | 111 | 0.0 | 0.0 | 0.00 | 0.00 | 0.00 | 73 | 1017.3 |
| 20260506102138 | 2 | 111 | 0.0 | 1.6 | 0.00 | 0.00 | 0.00 | 73 | 1017.3 |
| 20260506101638 | 2 | 111 | 0.0 | 3.2 | 0.00 | 0.00 | 0.00 | 72 | 1017.2 |
| 20260506101138 | 2 | 111 | 1.6 | 3.2 | 0.00 | 0.00 | 0.00 | 72 | 1017.1 |
| 20260506100634 | 2 | 137 | 0.0 | 1.6 | 0.00 | 0.00 | 0.00 | 71 | 1017.1 |
| 20260506100133 | 3 | 137 | 1.6 | 1.6 | 0.00 | 0.00 | 0.00 | 71 | 1017.0 |
| 20260506095632 | 3 | 111 | 0.0 | 1.6 | 0.00 | 0.00 | 0.00 | 70 | 1017.0 |
| 20260506095132 | 3 | 146 | 0.0 | 1.6 | 0.00 | 0.00 | 0.00 | 70 | 1017.1 |
| 20260506094632 | 3 | 162 | 0.0 | 3.2 | 0.00 | 0.00 | 0.00 | 69 | 1017.0 |
| 20260506094131 | 3 | 119 | 0.0 | 4.8 | 0.00 | 0.00 | 0.00 | 68 | 1016.9 |
| 20260506093631 | 3 | 9 | 1.6 | 4.8 | 0.00 | 0.00 | 0.00 | 68 | 1017.1 |
| 20260506093132 | 3 | 334 | 1.6 | 4.8 | 0.00 | 0.00 | 0.00 | 68 | 1016.8 |
| 20260506092631 | 3 | 291 | 1.6 | 4.8 | 0.00 | 0.00 | 0.00 | 68 | 1016.9 |
| 20260506092130 | 3 | 61 | 3.2 | 4.8 | 0.00 | 0.00 | 0.00 | 68 | 1016.7 |
| 20260506091130 | 3 | 303 | 1.6 | 4.8 | 0.00 | 0.00 | 0.00 | 67 | 1016.8 |
| 20260506090629 | 4 | 341 | 1.6 | 3.2 | 0.00 | 0.00 | 0.00 | 67 | 1016.7 |
| 20260506090128 | 4 | 341 | 1.6 | 3.2 | 0.00 | 0.00 | 0.00 | 67 | 1016.6 |
| 20260506085628 | 4 | 309 | 1.6 | 4.8 | 0.00 | 0.00 | 0.00 | 67 | 1016.5 |
| 20260506085127 | 4 | 340 | 1.6 | 4.8 | 0.00 | 0.00 | 0.00 | 67 | 1016.5 |
| 20260506084626 | 4 | 338 | 1.6 | 3.2 | 0.00 | 0.00 | 0.00 | 67 | 1016.3 |
| 20260506083627 | 4 | 314 | 1.6 | 3.2 | 0.00 | 0.00 | 0.00 | 67 | 1016.2 |
| 20260506083126 | 4 | 341 | 1.6 | 4.8 | 0.00 | 0.00 | 0.00 | 66 | 1016.2 |
| 20260506082124 | 5 | 344 | 3.2 | 4.8 | 0.00 | 0.00 | 0.00 | 66 | 1016.2 |
| 20260506081624 | 5 | 319 | 1.6 | 3.2 | 0.00 | 0.00 | 0.00 | 65 | 1016.2 |
| 20260506081124 | 5 | 334 | 1.6 | 3.2 | 0.00 | 0.00 | 0.00 | 65 | 1016.3 |
| 20260506080624 | 5 | 9 | 1.6 | 4.8 | 0.00 | 0.00 | 0.00 | 65 | 1016.2 |
| 20260506080123 | 5 | 334 | 1.6 | 4.8 | 0.00 | 0.00 | 0.00 | 64 | 1016.2 |
| 20260506073122 | 5 | 26 | 1.6 | 3.2 | 0.00 | 0.00 | 0.00 | 63 | 1015.9 |
| 20260506072621 | 5 | 329 | 1.6 | 3.2 | 0.00 | 0.00 | 0.00 | 63 | 1016.0 |
| 20260506072122 | 5 | 9 | 1.6 | 1.6 | 0.00 | 0.00 | 0.00 | 63 | 1015.9 |
| 20260506071621 | 5 | 9 | 0.0 | 1.6 | 0.00 | 0.00 | 0.00 | 63 | 1015.8 |
| 20260506071121 | 5 | 309 | 0.0 | 1.6 | 0.00 | 0.00 | 0.00 | 63 | 1015.8 |
| 20260506070620 | 5 | 325 | 0.0 | 1.6 | 0.00 | 0.00 | 0.00 | 63 | 1015.8 |
| 20260506070121 | 5 | 9 | 0.0 | 1.6 | 0.00 | 0.00 | 0.00 | 63 | 1015.9 |
| 20260506062113 | 5 | 309 | 0.0 | 3.2 | 0.00 | 0.03 | 0.00 | 62 | 1015.8 |
| 20260506061613 | 5 | 291 | 1.6 | 3.2 | 0.00 | 0.03 | 0.00 | 62 | 1015.9 |
| 20260506061113 | 5 | 9 | 1.6 | 3.2 | 0.00 | 0.03 | 0.00 | 62 | 1015.9 |
| 20260506060613 | 5 | 309 | 0.0 | 3.2 | 0.00 | 0.03 | 0.00 | 62 | 1015.8 |
| 20260506060112 | 5 | 344 | 0.0 | 3.2 | 0.00 | 0.05 | 0.00 | 62 | 1015.7 |
| 20260506051110 | 6 | 22 | 0.0 | 3.2 | 0.00 | 0.05 | 0.00 | 58 | 1015.3 |
| 20260506050611 | 6 | 334 | 1.6 | 3.2 | 0.00 | 0.08 | 0.00 | 58 | 1015.4 |
| 20260506050111 | 6 | 9 | 1.6 | 3.2 | 0.00 | 0.08 | 0.00 | 58 | 1015.2 |
| 20260506045109 | 7 | 9 | 1.6 | 3.2 | 0.00 | 0.10 | 0.08 | 57 | 1015.2 |
| 20260506044609 | 7 | 338 | 1.6 | 3.2 | 0.00 | 0.10 | 0.08 | 57 | 1015.2 |
| 20260506044108 | 7 | 325 | 1.6 | 3.2 | 0.00 | 0.13 | 0.08 | 56 | 1015.1 |
| 20260506043608 | 7 | 309 | 1.6 | 3.2 | 0.00 | 0.15 | 0.08 | 55 | 1015.0 |
| 20260506043108 | 7 | 9 | 1.6 | 3.2 | 0.00 | 0.15 | 0.08 | 55 | 1015.0 |
| 20260506042608 | 7 | 309 | 1.6 | 3.2 | 0.00 | 0.15 | 0.08 | 55 | 1015.0 |
| 20260506042108 | 7 | 279 | 1.6 | 3.2 | 0.00 | 0.15 | 0.08 | 54 | 1014.8 |
| 20260506041606 | 7 | 334 | 1.6 | 4.8 | 0.00 | 0.15 | 0.08 | 53 | 1014.9 |
| 20260506041109 | 7 | 330 | 1.6 | 4.8 | 0.00 | 0.15 | 0.08 | 52 | 1014.8 |
| 20260506040606 | 7 | 325 | 1.6 | 4.8 | 0.00 | 0.15 | 0.08 | 52 | 1014.9 |
| 20260506040106 | 7 | 265 | 3.2 | 8.0 | 0.00 | 0.15 | 0.08 | 52 | 1014.8 |
| 20260506035606 | 8 | 30 | 3.2 | 8.0 | 0.00 | 0.15 | 0.08 | 51 | 1014.7 |
| 20260506035105 | 8 | 9 | 3.2 | 8.0 | 0.00 | 0.15 | 0.08 | 51 | 1014.9 |
| 20260506034605 | 8 | 309 | 3.2 | 8.0 | 0.00 | 0.15 | 0.08 | 51 | 1014.8 |
| 20260506034105 | 8 | 334 | 3.2 | 6.4 | 0.00 | 0.15 | 0.08 | 51 | 1014.8 |
| 20260506033105 | 8 | 9 | 3.2 | 12.9 | 0.00 | 0.15 | 0.08 | 50 | 1014.8 |
| 20260506032604 | 8 | 330 | 3.2 | 12.9 | 0.00 | 0.15 | 0.08 | 49 | 1014.6 |
| 20260506032103 | 8 | 16 | 3.2 | 8.0 | 0.00 | 0.15 | 0.08 | 49 | 1014.6 |
| 20260506031105 | 8 | 9 | 3.2 | 8.0 | 0.00 | 0.15 | 0.08 | 49 | 1014.4 |
| 20260506030602 | 8 | 9 | 4.8 | 11.3 | 0.00 | 0.15 | 0.08 | 48 | 1014.3 |
| 20260506030103 | 8 | 330 | 4.8 | 11.3 | 0.00 | 0.15 | 0.08 | 48 | 1014.2 |
| 20260506025603 | 8 | 339 | 4.8 | 8.0 | 0.00 | 0.15 | 0.08 | 48 | 1014.2 |
| 20260506025102 | 8 | 321 | 4.8 | 9.7 | 0.00 | 0.15 | 0.08 | 48 | 1014.1 |
| 20260506024601 | 9 | 338 | 3.2 | 9.7 | 0.00 | 0.15 | 0.08 | 47 | 1014.2 |
| 20260506023601 | 9 | 15 | 6.4 | 12.9 | 0.00 | 0.15 | 0.08 | 46 | 1014.1 |
| 20260506023100 | 9 | 41 | 4.8 | 11.3 | 0.00 | 0.15 | 0.08 | 45 | 1014.0 |
| 20260506022600 | 9 | 9 | 4.8 | 9.7 | 0.00 | 0.15 | 0.08 | 46 | 1014.0 |
| 20260506022100 | 9 | 346 | 6.4 | 9.7 | 0.00 | 0.15 | 0.08 | 45 | 1013.8 |
| 20260506021601 | 10 | 298 | 6.4 | 16.1 | 0.00 | 0.15 | 0.08 | 44 | 1013.8 |
| 20260506021059 | 10 | 9 | 8.0 | 16.1 | 0.00 | 0.15 | 0.08 | 44 | 1013.7 |
| 20260506020559 | 10 | 334 | 6.4 | 16.1 | 0.00 | 0.15 | 0.08 | 44 | 1013.6 |
| 20260506020058 | 10 | 325 | 6.4 | 16.1 | 0.00 | 0.15 | 0.08 | 44 | 1013.6 |
| 20260506015558 | 10 | 13 | 4.8 | 14.5 | 0.00 | 0.15 | 0.08 | 43 | 1013.6 |
| 20260506015057 | 10 | 29 | 4.8 | 14.5 | 0.00 | 0.15 | 0.08 | 43 | 1013.5 |
| 20260506014556 | 10 | 325 | 6.4 | 14.5 | 0.00 | 0.15 | 0.08 | 42 | 1013.4 |
| 20260506014056 | 10 | 32 | 6.4 | 17.7 | 0.00 | 0.15 | 0.08 | 43 | 1013.3 |
| 20260506013557 | 10 | 286 | 6.4 | 17.7 | 0.00 | 0.15 | 0.08 | 42 | 1013.1 |
| 20260506013056 | 10 | 24 | 8.0 | 16.1 | 0.00 | 0.15 | 0.08 | 42 | 1013.1 |
| 20260506012556 | 10 | 340 | 8.0 | 20.9 | 0.00 | 0.15 | 0.08 | 42 | 1013.1 |
| 20260506012056 | 10 | 328 | 9.7 | 20.9 | 0.00 | 0.15 | 0.08 | 41 | 1013.0 |
| 20260506011557 | 11 | 348 | 6.4 | 17.7 | 0.00 | 0.15 | 0.08 | 42 | 1012.9 |
| 20260506011054 | 11 | 341 | 8.0 | 19.3 | 0.00 | 0.15 | 0.08 | 42 | 1013.0 |
| 20260506010554 | 11 | 11 | 9.7 | 19.3 | 0.00 | 0.15 | 0.08 | 41 | 1012.9 |
| 20260506010054 | 11 | 346 | 8.0 | 22.5 | 0.00 | 0.15 | 0.08 | 40 | 1012.9 |
| 20260506005554 | 11 | 342 | 11.3 | 24.1 | 0.00 | 0.15 | 0.08 | 40 | 1012.9 |
| 20260506004553 | 11 | 327 | 14.5 | 24.1 | 0.00 | 0.15 | 0.08 | 40 | 1012.9 |
| 20260506004053 | 11 | 305 | 11.3 | 20.9 | 0.00 | 0.15 | 0.08 | 40 | 1012.7 |
| 20260506003553 | 11 | 342 | 8.0 | 24.1 | 0.00 | 0.15 | 0.08 | 41 | 1012.7 |
| 20260506003053 | 11 | 336 | 9.7 | 24.1 | 0.00 | 0.15 | 0.08 | 39 | 1012.6 |
| 20260506002552 | 11 | 18 | 12.9 | 25.7 | 0.00 | 0.15 | 0.08 | 39 | 1012.7 |
| 20260506002054 | 11 | 22 | 12.9 | 27.4 | 0.00 | 0.15 | 0.08 | 39 | 1012.6 |
| 20260506001550 | 11 | 325 | 17.7 | 27.4 | 0.00 | 0.15 | 0.08 | 39 | 1012.6 |
| 20260506001050 | 11 | 342 | 11.3 | 22.5 | 0.00 | 0.15 | 0.08 | 40 | 1012.5 |
| 20260506000550 | 12 | 13 | 8.0 | 22.5 | 0.00 | 0.15 | 0.08 | 40 | 1012.5 |
| 20260505235549 | 12 | 23 | 9.7 | 24.1 | 0.00 | 0.15 | 0.08 | 40 | 1012.6 |
| 20260505235049 | 12 | 18 | 12.9 | 24.1 | 0.00 | 0.15 | 0.08 | 40 | 1012.5 |
| 20260505234048 | 12 | 205 | 9.7 | 25.7 | 0.00 | 0.15 | 0.08 | 39 | 1012.4 |
| 20260505232044 | 12 | 30 | 16.1 | 22.5 | 0.00 | 0.15 | 0.08 | 38 | 1012.3 |
| 20260505231542 | 12 | 11 | 11.3 | 25.7 | 0.00 | 0.15 | 0.08 | 39 | 1012.3 |
| 20260505231041 | 12 | 13 | 14.5 | 30.6 | 0.00 | 0.15 | 0.08 | 39 | 1012.3 |
| 20260505230541 | 13 | 11 | 9.7 | 30.6 | 0.00 | 0.15 | 0.08 | 39 | 1012.2 |
| 20260505230040 | 13 | 347 | 11.3 | 29.0 | 0.00 | 0.15 | 0.08 | 39 | 1012.3 |
| 20260505225540 | 13 | 351 | 12.9 | 32.2 | 0.00 | 0.15 | 0.08 | 38 | 1012.2 |
| 20260505225040 | 14 | 303 | 16.1 | 32.2 | 0.00 | 0.15 | 0.08 | 38 | 1012.1 |
| 20260505224539 | 14 | 9 | 6.4 | 20.9 | 0.00 | 0.15 | 0.08 | 38 | 1012.1 |
| 20260505224039 | 15 | 325 | 4.8 | 24.1 | 0.00 | 0.15 | 0.08 | 39 | 1012.0 |
| 20260505223540 | 15 | 301 | 11.3 | 24.1 | 0.00 | 0.15 | 0.08 | 39 | 1012.0 |
| 20260505223038 | 15 | 312 | 8.0 | 24.1 | 0.00 | 0.15 | 0.08 | 39 | 1012.0 |
| 20260505222039 | 15 | 275 | 6.4 | 22.5 | 0.00 | 0.15 | 0.08 | 38 | 1012.0 |
| 20260505221537 | 15 | 287 | 6.4 | 17.7 | 0.00 | 0.15 | 0.08 | 41 | 1012.0 |
| 20260505221037 | 14 | 338 | 6.4 | 19.3 | 0.00 | 0.15 | 0.08 | 40 | 1012.0 |
| 20260505220535 | 14 | 303 | 6.4 | 22.5 | 0.00 | 0.15 | 0.08 | 40 | 1011.9 |
| 20260505220035 | 14 | 9 | 11.3 | 22.5 | 0.00 | 0.15 | 0.08 | 41 | 1011.9 |
| 20260505215534 | 14 | 277 | 8.0 | 17.7 | 0.00 | 0.15 | 0.08 | 39 | 1011.8 |
| 20260505215032 | 14 | 257 | 6.4 | 22.5 | 0.00 | 0.15 | 0.08 | 38 | 1011.9 |
| 20260505214032 | 14 | 300 | 9.7 | 24.1 | 0.00 | 0.15 | 0.08 | 38 | 1011.9 |
| 20260505213532 | 15 | 297 | 12.9 | 24.1 | 0.00 | 0.15 | 0.08 | 38 | 1012.0 |
| 20260505213032 | 15 | 332 | 11.3 | 20.9 | 0.00 | 0.15 | 0.08 | 37 | 1012.0 |
| 20260505212532 | 15 | 350 | 6.4 | 22.5 | 0.00 | 0.15 | 0.08 | 41 | 1012.0 |
| 20260505212033 | 14 | 268 | 9.7 | 22.5 | 0.00 | 0.15 | 0.08 | 42 | 1012.2 |
| 20260505211531 | 14 | 16 | 4.8 | 25.7 | 0.00 | 0.15 | 0.08 | 41 | 1012.2 |
| 20260505211031 | 14 | 323 | 8.0 | 25.7 | 0.00 | 0.15 | 0.08 | 39 | 1012.1 |
| 20260505210531 | 14 | 314 | 14.5 | 25.7 | 0.00 | 0.15 | 0.08 | 41 | 1012.2 |
| 20260505210030 | 14 | 32 | 9.7 | 29.0 | 0.00 | 0.15 | 0.08 | 40 | 1012.3 |
| 20260505205529 | 14 | 15 | 17.7 | 29.0 | 0.00 | 0.15 | 0.08 | 40 | 1012.4 |
| 20260505205029 | 15 | 10 | 11.3 | 22.5 | 0.00 | 0.15 | 0.08 | 41 | 1012.4 |
| 20260505204528 | 15 | 57 | 9.7 | 22.5 | 0.00 | 0.15 | 0.08 | 39 | 1012.5 |
| 20260505204028 | 15 | 336 | 6.4 | 24.1 | 0.00 | 0.15 | 0.08 | 41 | 1012.5 |
| 20260505203528 | 15 | 346 | 14.5 | 24.1 | 0.00 | 0.15 | 0.08 | 39 | 1012.5 |
| 20260505203028 | 15 | 328 | 6.4 | 16.1 | 0.00 | 0.15 | 0.08 | 40 | 1012.6 |
| 20260505202527 | 15 | 344 | 9.7 | 22.5 | 0.00 | 0.15 | 0.08 | 39 | 1012.6 |
| 20260505202029 | 15 | 292 | 8.0 | 24.1 | 0.00 | 0.15 | 0.08 | 39 | 1012.6 |
| 20260505200525 | 16 | 325 | 9.7 | 25.7 | 0.00 | 0.15 | 0.08 | 39 | 1012.7 |
| 20260505200025 | 16 | 350 | 9.7 | 20.9 | 0.00 | 0.15 | 0.08 | 41 | 1012.7 |
| 20260505195524 | 16 | 339 | 8.0 | 30.6 | 0.00 | 0.15 | 0.08 | 41 | 1012.7 |
| 20260505195024 | 16 | 16 | 11.3 | 30.6 | 0.00 | 0.15 | 0.08 | 39 | 1012.7 |
| 20260505194524 | 16 | 311 | 8.0 | 25.7 | 0.00 | 0.15 | 0.08 | 41 | 1012.6 |
| 20260505194024 | 15 | 342 | 6.4 | 25.7 | 0.00 | 0.15 | 0.08 | 43 | 1012.8 |
| 20260505193524 | 15 | 330 | 9.7 | 27.4 | 0.00 | 0.15 | 0.08 | 40 | 1012.8 |
| 20260505193022 | 15 | 13 | 12.9 | 29.0 | 0.00 | 0.15 | 0.08 | 39 | 1012.7 |
| 20260505192024 | 16 | 309 | 9.7 | 24.1 | 0.00 | 0.15 | 0.08 | 38 | 1012.9 |
| 20260505191522 | 16 | 11 | 8.0 | 17.7 | 0.00 | 0.15 | 0.08 | 40 | 1013.0 |
| 20260505191022 | 16 | 302 | 6.4 | 24.1 | 0.00 | 0.15 | 0.08 | 39 | 1013.0 |
| 20260505190522 | 16 | 334 | 9.7 | 24.1 | 0.00 | 0.15 | 0.08 | 39 | 1013.0 |
| 20260505190020 | 16 | 277 | 6.4 | 16.1 | 0.00 | 0.15 | 0.08 | 44 | 1013.1 |
| 20260505185520 | 16 | 303 | 8.0 | 20.9 | 0.00 | 0.15 | 0.08 | 44 | 1013.1 |
| 20260505185020 | 15 | 329 | 6.4 | 25.7 | 0.00 | 0.15 | 0.08 | 42 | 1013.1 |
| 20260505184520 | 15 | 38 | 11.3 | 27.4 | 0.00 | 0.15 | 0.08 | 42 | 1013.1 |
| 20260505184019 | 15 | 319 | 8.0 | 33.8 | 0.00 | 0.15 | 0.08 | 42 | 1013.1 |
| 20260505183518 | 15 | 334 | 17.7 | 33.8 | 0.00 | 0.15 | 0.08 | 40 | 1013.3 |
| 20260505183018 | 16 | 344 | 8.0 | 20.9 | 0.00 | 0.15 | 0.08 | 38 | 1013.3 |
| 20260505182518 | 16 | 306 | 6.4 | 25.7 | 0.00 | 0.15 | 0.08 | 44 | 1013.3 |
| 20260505182019 | 16 | 329 | 9.7 | 27.4 | 0.00 | 0.15 | 0.08 | 47 | 1013.4 |
| 20260505181517 | 16 | 329 | 9.7 | 27.4 | 0.00 | 0.15 | 0.08 | 43 | 1013.4 |
| 20260505181016 | 16 | 324 | 14.5 | 25.7 | 0.00 | 0.15 | 0.08 | 44 | 1013.4 |
| 20260505180514 | 16 | 11 | 9.7 | 27.4 | 0.00 | 0.15 | 0.08 | 43 | 1013.4 |
| 20260505180012 | 16 | 342 | 11.3 | 27.4 | 0.00 | 0.15 | 0.08 | 46 | 1013.5 |
| 20260505175512 | 16 | 346 | 14.5 | 27.4 | 0.00 | 0.15 | 0.08 | 43 | 1013.4 |
| 20260505175011 | 16 | 314 | 8.0 | 20.9 | 0.00 | 0.15 | 0.08 | 46 | 1013.3 |
| 20260505174511 | 16 | 309 | 6.4 | 20.9 | 0.00 | 0.15 | 0.08 | 45 | 1013.3 |
| 20260505173011 | 15 | 317 | 6.4 | 20.9 | 0.00 | 0.15 | 0.08 | 48 | 1013.5 |
| 20260505172509 | 14 | 9 | 11.3 | 20.9 | 0.00 | 0.15 | 0.08 | 53 | 1013.7 |
| 20260505172010 | 13 | 294 | 4.8 | 12.9 | 0.00 | 0.15 | 0.08 | 53 | 1013.6 |
| 20260505171509 | 13 | 51 | 1.6 | 11.3 | 0.00 | 0.15 | 0.08 | 47 | 1013.8 |
| 20260505171008 | 13 | 254 | 3.2 | 11.3 | 0.00 | 0.15 | 0.08 | 55 | 1013.7 |
| 20260505170508 | 13 | 286 | 3.2 | 11.3 | 0.00 | 0.15 | 0.08 | 53 | 1013.9 |
| 20260505170008 | 13 | 289 | 3.2 | 11.3 | 0.00 | 0.15 | 0.08 | 50 | 1013.9 |
| 20260505165507 | 13 | 286 | 6.4 | 11.3 | 0.00 | 0.15 | 0.08 | 52 | 1013.9 |
| 20260505165007 | 13 | 317 | 3.2 | 9.7 | 0.00 | 0.15 | 0.08 | 55 | 1013.9 |
| 20260505164506 | 13 | 325 | 4.8 | 9.7 | 0.00 | 0.15 | 0.08 | 53 | 1014.1 |
| 20260505163506 | 13 | 16 | 3.2 | 9.7 | 0.00 | 0.15 | 0.08 | 56 | 1014.0 |
| 20260505163005 | 12 | 281 | 3.2 | 12.9 | 0.00 | 0.15 | 0.08 | 60 | 1013.9 |
| 20260505162506 | 12 | 9 | 1.6 | 14.5 | 0.00 | 0.15 | 0.08 | 60 | 1013.7 |
| 20260505162005 | 12 | 338 | 3.2 | 14.5 | 0.00 | 0.15 | 0.08 | 62 | 1013.6 |
| 20260505161005 | 11 | 309 | 3.2 | 12.9 | 0.00 | 0.15 | 0.08 | 63 | 1013.6 |
| 20260505160503 | 11 | 279 | 3.2 | 12.9 | 0.00 | 0.15 | 0.08 | 65 | 1013.5 |
| 20260505153003 | 10 | 323 | 3.2 | 12.9 | 0.00 | 0.15 | 0.08 | 71 | 1013.4 |
| 20260505152002 | 9 | 247 | 3.2 | 12.9 | 0.00 | 0.15 | 0.08 | 72 | 1013.3 |
| 20260505151502 | 9 | 334 | 4.8 | 14.5 | 0.00 | 0.15 | 0.08 | 72 | 1013.3 |
| 20260505151001 | 9 | 334 | 4.8 | 14.5 | 0.00 | 0.15 | 0.08 | 74 | 1013.4 |
| 20260505150501 | 9 | 309 | 4.8 | 12.9 | 0.00 | 0.15 | 0.08 | 74 | 1013.1 |